Weather WX

World > North America > United States > Pennsylvania

Brockway, Pennsylvania Regional Weather

Lat: 41.25N, Lon: 78.79W
Wx Zone: PAZ016
Warning FLW WEATHER ALERT - (More Info. Click Here) Warning
Feedback

Brockway, PA Regional Weather

Expires:201906170200;;188039
ASUS41 KCTP 170110
RWRCTP

REGIONAL WEATHER ROUNDUP
NATIONAL WEATHER SERVICE STATE COLLEGE PA
900 PM EDT SUN JUN 16 2019

Note: "fair" indicates few or no clouds below 12,000 feet with no 
significant weather and/or obstructions to visibility.

* = STATION THAT DOES NOT REPORT PRECIPITATION /E.G. RAIN...SNOW...ETC/
    THUNDER OR FOG.


PAZ002>004-007>009-013>016-020>023-029>032-170200-
WESTERN PENNSYLVANIA
  
CITY           SKY/WX    TMP DP  RH WIND       PRES   REMARKS
ERIE           MOCLDY    59  56  89 NE10      29.89F                  
MEADVILLE      CLOUDY    65  62  90 N6        29.89R                  
FRANKLIN*      CLOUDY    64  63  96 NE3       29.89S                  
NEW CASTLE     FAIR      68  65  90 CALM      29.89R                  
BEAVER COUNTY  NOT AVBL                                               
BUTLER*        FAIR      67  65  93 CALM      29.90R                  
PITTSBURGH INT TSTM      69  67  93 N13       29.89R VSB 3/4          
PITTSBURGH     FAIR      74  65  73 SW9       29.88R                  
INDIANA*       CLOUDY    68  68 100 CALM      29.93R                  
LATROBE        MOCLDY    72  68  88 SW12      29.88S                  
WASHINGTON CO* FAIR      73  67  81 SW5       29.91R                  
$$


SKY/WX - Weather  TMP - Temperature  DP - Dew Point  RH - Relative Humidity
WIND - Wind Direction/Speed PRES - Barometric Pressure VSB - Visibility
WCI - Wind Chill Index E13G22 Wind - East Wind 13 mph/Gusts of 22 mph